Location: Alberta Star Party
(51.6612°N, 112.9089°W)
Time: 09:31:54
(UTC-06:00)

Amateur Radio Satellites - All Passes

Search period start: 31 March 2015 09:01
Search period end: 01 April 2015 09:01
Location: Alberta Star Party, 51.6612°N, 112.9089°W

Satellite Date Start Highest point End Downlink Frequencies (MHz)
Time Altitude Azimuth
GOMX 1 31 Mar 09:04:46 09:06:59 14° 87° (E) 09:09:26 467.674
TIGRISAT 31 Mar 09:18:56 09:19:24 10° 52° (NE) 09:20:03 435.000
PHONESAT 2.4 31 Mar 09:28:29 09:30:11 13° 187° (S) 09:31:52 2401.200-2431.200
CANX-2 31 Mar 09:34:08 09:37:40 24° 92° (E) 09:41:14 2200.000
CUTE-I 31 Mar 09:38:41 09:43:00 25° 302° (WNW) 09:47:13 437.470
Cubesat XI-IV 31 Mar 09:39:31 09:43:49 25° 302° (WNW) 09:48:00 437.490
DANDE 31 Mar 09:43:04 09:46:17 23° 264° (W) 09:50:09 436.750
CINEMA 3 31 Mar 09:45:33 09:47:53 14° 87° (E) 09:50:27 145.822/145.860
ANTELSAT 31 Mar 09:47:33 09:50:26 18° 58° (ENE) 09:53:28 437.575/2403.000
CUTE 1.7 + AOD 2 31 Mar 09:47:35 09:51:23 29° 94° (E) 09:55:12 437.475
BEESAT 2 31 Mar 09:54:15 09:54:44 10° 110° (ESE) 09:55:25 435.950
HO-68 31 Mar 09:56:06 10:02:54 43° 97° (E) 10:09:44 435.675
AAUSAT CUBESAT 2 31 Mar 10:04:12 10:07:49 27° 93° (E) 10:11:28 437.432
POPSAT HIP 1 31 Mar 10:04:57 10:07:14 15° 57° (ENE) 10:09:39 437.405
BRITE-PL 31 Mar 10:05:26 10:09:38 73° 102° (ESE) 10:13:59 437.365/2234.400
SEEDS 31 Mar 10:13:33 10:17:40 44° 98° (E) 10:21:47 437.485
NANOSAT C BR1 31 Mar 10:14:08 10:16:52 17° 59° (ENE) 10:19:42 145.865
AO-7 31 Mar 10:14:42 10:17:42 12° 341° (NNW) 10:20:34 29.400- 29.500
POLYITAN 1 31 Mar 10:19:59 10:22:59 20° 60° (ENE) 10:26:06 437.675
DOVE 4 31 Mar 10:20:09 10:24:20 49° 99° (E) 10:28:44 437.250
BEESAT 3 31 Mar 10:25:43 10:28:57 23° 117° (ESE) 10:32:17 437.485
DX 1 31 Mar 10:31:32 10:32:35 11° 84° (E) 10:33:50 434.975-435.025
COMPASS 1 31 Mar 10:32:45 10:36:58 56° 100° (E) 10:41:09 437.405
GOMX 1 31 Mar 10:41:28 10:45:44 76° 286° (WNW) 10:50:10 467.674
UNISAT 6 31 Mar 10:41:56 10:46:05 50° 69° (ENE) 10:50:21 437.425
Oscar 11 31 Mar 10:45:02 10:49:02 34° 95° (E) 10:53:03 145.826/435.025
TIGRISAT 31 Mar 10:51:06 10:55:19 60° 71° (ENE) 10:59:37 435.000
QB50P1 31 Mar 10:54:51 10:58:45 38° 67° (ENE) 11:02:41 145.935-145.965
DUCHIFAT 1 31 Mar 10:55:28 10:59:20 37° 67° (ENE) 11:03:15 145.980
FUNcube-1 31 Mar 10:59:51 11:03:35 27° 93° (E) 11:07:27 145.935
DELFI C3 31 Mar 11:05:49 11:09:45 42° 97° (E) 11:13:40 145.870
UWE-3 31 Mar 11:09:31 11:13:41 40° 97° (E) 11:17:58 435.000/436.395/437.385
CANX-2 31 Mar 11:09:40 11:13:49 44° 291° (WNW) 11:17:55 2200.000
QB50P2 31 Mar 11:10:12 11:14:18 53° 70° (ENE) 11:18:27 145.880/145.840
ZACube-1 31 Mar 11:13:23 11:17:27 37° 96° (E) 11:21:36 437.345
AIST 2 31 Mar 11:15:24 11:18:47 23° 117° (ESE) 11:22:14 435.215
VELOX 1 31 Mar 11:18:52 11:21:25 15° 87° (E) 11:24:08 145.980
CUBEBUG 2 31 Mar 11:18:57 11:23:19 58° 101° (E) 11:27:49 437.445
CINEMA 3 31 Mar 11:21:18 11:25:42 81° 286° (WNW) 11:30:16 145.822/145.860
ANTELSAT 31 Mar 11:22:31 11:26:48 69° 258° (WSW) 11:31:11 437.575/2403.000
CUTE 1.7 + AOD 2 31 Mar 11:23:24 11:27:23 36° 293° (WNW) 11:31:20 437.475
AISAT 31 Mar 11:24:13 11:27:09 18° 89° (E) 11:30:13 437.250
BUGSAT 1 31 Mar 11:26:15 11:30:17 55° 71° (ENE) 11:34:18 437.445
BEESAT 2 31 Mar 11:28:02 11:32:09 67° 128° (SE) 11:36:19 435.950
POPSAT HIP 1 31 Mar 11:38:22 11:42:36 85° 255° (WSW) 11:46:50 437.405
AAUSAT CUBESAT 2 31 Mar 11:39:37 11:43:35 39° 292° (WNW) 11:47:31 437.432
HO-68 31 Mar 11:43:53 11:50:49 51° 298° (WNW) 11:57:41 435.675
BRITE-PL 31 Mar 11:45:10 11:47:48 16° 301° (WNW) 11:50:22 437.365/2234.400
HUMSAT D 31 Mar 11:47:16 11:51:19 41° 98° (E) 11:55:24 437.325/437.525
NANOSAT C BR1 31 Mar 11:48:06 11:52:18 69° 257° (WSW) 11:56:31 145.865
SEEDS 31 Mar 11:49:44 11:53:19 25° 297° (WNW) 11:56:49 437.485
UKube-1 31 Mar 11:52:10 11:56:28 58° 101° (ESE) 12:00:44 .
POLYITAN 1 31 Mar 11:54:25 11:58:34 59° 258° (WSW) 12:02:47 437.675
DOVE 4 31 Mar 11:58:30 12:01:57 23° 297° (WNW) 12:05:26 437.250
ESTCUBE 1 31 Mar 12:00:40 12:04:09 22° 91° (E) 12:07:42 437.505/2401.250
BEESAT 3 31 Mar 12:02:38 12:06:43 59° 317° (NW) 12:10:51 437.485
O/OREOS (USA 219) 31 Mar 12:02:50 12:05:27 15° 35° (NE) 12:08:08 437.305
DX 1 31 Mar 12:05:17 12:09:39 81° 103° (ESE) 12:14:00 434.975-435.025
AO-7 31 Mar 12:05:40 12:06:45 10° 10° (N) 12:07:57 29.400- 29.500
50 SAT 31 Mar 12:08:35 12:12:28 45° 99° (E) 12:16:23 437.505
COMPASS 1 31 Mar 12:09:08 12:12:21 21° 299° (WNW) 12:15:28 437.405
Oscar 19 31 Mar 12:19:29 12:22:42 17° 54° (NE) 12:26:04 437.125/150
UNISAT 6 31 Mar 12:19:52 12:23:13 21° 270° (W) 12:26:33 437.425
Oscar 11 31 Mar 12:21:17 12:25:13 32° 294° (WNW) 12:29:06 145.826/435.025
GOMX 1 31 Mar 12:21:35 12:23:18 12° 304° (NW) 12:24:51 467.674
TIGRISAT 31 Mar 12:29:31 12:32:33 18° 272° (W) 12:35:30 435.000
QB50P1 31 Mar 12:31:06 12:34:45 27° 266° (W) 12:38:22 145.935-145.965
DUCHIFAT 1 31 Mar 12:31:39 12:35:18 27° 266° (W) 12:38:54 145.980
FUNcube-1 31 Mar 12:35:58 12:40:04 41° 292° (WNW) 12:44:14 145.935
DELFI C3 31 Mar 12:41:22 12:44:45 25° 297° (WNW) 12:48:05 145.870
UWE-3 31 Mar 12:46:20 12:50:07 29° 295° (WNW) 12:53:57 435.000/436.395/437.385
QB50P2 31 Mar 12:47:25 12:50:35 20° 270° (W) 12:53:38 145.880/145.840
CUBEBUG 1 31 Mar 12:47:42 12:51:57 51° 100° (E) 12:56:10 437.445
SPROUT 31 Mar 12:48:57 12:51:45 17° 88° (E) 12:54:41 437.525
ZACube-1 31 Mar 12:49:54 12:53:47 31° 294° (WNW) 12:57:40 437.345
AIST 2 31 Mar 12:52:49 12:57:04 61° 316° (NW) 13:01:22 435.215
VELOX 1 31 Mar 12:54:09 12:58:35 74° 288° (WNW) 13:02:59 145.980
Gurwin Techsat 1B 31 Mar 12:54:13 12:56:02 12° 48° (NE) 12:58:03 435.225
CUBEBUG 2 31 Mar 12:56:22 12:59:44 21° 298° (WNW) 13:03:05 437.445
AISAT 31 Mar 12:59:52 13:04:15 64° 289° (WNW) 13:08:36 437.250
CINEMA 3 31 Mar 13:00:09 13:02:20 13° 303° (WNW) 13:04:25 145.822/145.860
BUGSAT 1 31 Mar 13:03:12 13:06:08 18° 270° (W) 13:08:58 437.445
BEESAT 2 31 Mar 13:07:03 13:10:40 27° 329° (NNW) 13:14:17 435.950
POPSAT HIP 1 31 Mar 13:18:00 13:19:16 11° 276° (W) 13:20:19 437.405
HUMSAT D 31 Mar 13:23:21 13:26:57 27° 296° (WNW) 13:30:31 437.325/437.525
ITAMSAT 1 31 Mar 13:28:57 13:32:58 24° 58° (ENE) 13:37:05 435.822/435.867
UKube-1 31 Mar 13:29:01 13:32:18 21° 300° (WNW) 13:35:29 .
YUBILEINY 31 Mar 13:32:54 13:40:36 37° 84° (E) 13:48:30 435.215
HO-68 31 Mar 13:32:56 13:37:06 16° 321° (NW) 13:41:03 435.675
ESTCUBE 1 31 Mar 13:36:57 13:41:23 53° 290° (WNW) 13:45:46 437.505/2401.250
O/OREOS (USA 219) 31 Mar 13:41:18 13:45:52 64° 58° (ENE) 13:50:22 437.305
BEESAT 3 31 Mar 13:42:35 13:45:35 19° 339° (NNW) 13:48:34 437.485
DX 1 31 Mar 13:42:40 13:45:24 16° 303° (WNW) 13:48:00 434.975-435.025
50 SAT 31 Mar 13:43:58 13:47:11 23° 297° (WNW) 13:50:20 437.505
AO-7 31 Mar 13:50:49 13:56:24 21° 37° (NE) 14:02:10 29.400- 29.500
Oscar 19 31 Mar 13:56:17 14:01:24 86° 75° (ENE) 14:06:36 437.125/150
TISAT 1 31 Mar 14:05:14 14:09:27 75° 103° (ESE) 14:13:39 437.305
SWISSCUBE 31 Mar 14:18:09 14:21:52 23° 90° (E) 14:25:40 437.505
BEESAT 31 Mar 14:20:42 14:24:24 22° 90° (E) 14:28:10 436.000
SPROUT 31 Mar 14:24:04 14:28:19 63° 288° (WNW) 14:32:32 437.525
CUBEBUG 1 31 Mar 14:24:37 14:28:04 23° 299° (WNW) 14:31:26 437.445
Gurwin Techsat 1B 31 Mar 14:29:50 14:34:59 53° 68° (ENE) 14:40:11 435.225
VELOX 1 31 Mar 14:32:28 14:34:28 13° 306° (NW) 14:36:19 145.980
AIST 2 31 Mar 14:33:16 14:36:28 20° 339° (NNW) 14:39:40 435.215
AISAT 31 Mar 14:38:40 14:40:05 11° 307° (NW) 14:41:21 437.250
BEESAT 2 31 Mar 14:47:48 14:50:05 14° 352° (N) 14:52:21 435.950
JAS-2 31 Mar 14:56:56 15:02:44 26° 51° (NE) 15:08:58 435.910
AIST 1 31 Mar 14:58:56 15:02:47 30° 69° (ENE) 15:06:36
ITAMSAT 1 31 Mar 15:06:51 15:12:04 69° 256° (WSW) 15:17:18 435.822/435.867
ITUPSAT 1 31 Mar 15:08:31 15:13:15 54° 101° (E) 15:17:57 437.325
HORYU 2 31 Mar 15:09:11 15:13:01 30° 64° (ENE) 15:16:57 437.375
O/OREOS (USA 219) 31 Mar 15:21:34 15:24:53 19° 257° (WSW) 15:28:03 437.305
PCSat 31 Mar 15:21:51 15:27:00 48° 119° (ESE) 15:32:15 145.827
BEESAT 3 31 Mar 15:23:02 15:25:07 13° 2° (N) 15:27:13 437.485
YUBILEINY 31 Mar 15:28:16 15:37:03 65° 287° (WNW) 15:45:52 435.215
KKS-1 31 Mar 15:28:35 15:31:51 20° 90° (E) 15:35:14 437.445
Oscar 19 31 Mar 15:38:17 15:41:33 16° 274° (W) 15:44:39 437.125/150
AO-7 31 Mar 15:39:40 15:47:43 59° 61° (ENE) 15:55:49 29.400- 29.500
TISAT 1 31 Mar 15:42:08 15:44:48 16° 302° (WNW) 15:47:22 437.305
STARS 31 Mar 15:54:51 15:58:23 24° 92° (E) 16:01:59 437.465
SWISSCUBE 31 Mar 15:55:25 16:00:08 57° 291° (WNW) 16:04:49 437.505
BEESAT 31 Mar 15:57:56 16:02:40 58° 290° (WNW) 16:07:21 436.000
SPROUT 31 Mar 16:02:41 16:03:38 11° 307° (NW) 16:04:25 437.525
Gurwin Techsat 1B 31 Mar 16:10:41 16:15:17 28° 268° (W) 16:19:50 435.225
AIST 2 31 Mar 16:14:13 16:16:34 14° 2° (N) 16:18:56 435.215
BEESAT 2 31 Mar 16:27:04 16:29:46 16° 16° (NNE) 16:32:29 435.950
AIST 1 31 Mar 16:36:34 16:40:29 33° 269° (W) 16:44:18
JAS-2 31 Mar 16:39:35 16:46:49 84° 73° (ENE) 16:54:42 435.910
HORYU 2 31 Mar 16:45:25 16:49:36 39° 263° (W) 16:53:49 437.375
ITUPSAT 1 31 Mar 16:46:55 16:50:53 26° 300° (WNW) 16:54:46 437.325
ITAMSAT 1 31 Mar 16:50:46 16:52:41 12° 278° (W) 16:54:19 435.822/435.867
BEESAT 3 31 Mar 17:01:17 17:04:34 22° 26° (NNE) 17:07:52 437.485
KKS-1 31 Mar 17:04:30 17:08:54 56° 290° (WNW) 17:13:15 437.445
PCSat 31 Mar 17:05:24 17:10:34 42° 320° (NW) 17:15:44 145.827
MOZHAYETS 4 31 Mar 17:20:37 17:24:03 20° 89° (E) 17:27:33
YUBILEINY 31 Mar 17:29:54 17:36:07 20° 314° (NW) 17:42:03 435.215
STARS 31 Mar 17:30:52 17:35:07 47° 291° (WNW) 17:39:21 437.465
AO-7 31 Mar 17:33:05 17:40:54 42° 263° (W) 17:48:40 29.400- 29.500
SWISSCUBE 31 Mar 17:35:31 17:37:06 11° 310° (NW) 17:38:30 437.505
BEESAT 31 Mar 17:37:57 17:39:38 12° 310° (NW) 17:41:08 436.000
CUTE-I 31 Mar 17:46:18 17:51:01 33° 62° (ENE) 17:55:47 437.470
Cubesat XI-IV 31 Mar 17:47:11 17:51:56 34° 62° (ENE) 17:56:45 437.490
AIST 2 31 Mar 17:53:07 17:56:35 23° 26° (NNE) 18:00:04 435.215
GONETS M04 31 Mar 17:56:54 17:59:42 12° 67° (ENE) 18:03:05
BEESAT 2 31 Mar 18:04:54 18:08:55 43° 39° (NE) 18:12:53 435.950
SO-50 31 Mar 18:12:00 18:12:33 10° 108° (ESE) 18:13:22 436.795
JAS-2 31 Mar 18:26:54 18:32:53 26° 276° (W) 18:39:03 435.910
BEESAT 3 31 Mar 18:39:02 18:43:13 84° 48° (NE) 18:47:19 437.485
RS-15 31 Mar 18:43:44 18:52:32 31° 106° (ESE) 19:01:47 29.354- 29.394
KKS-1 31 Mar 18:44:01 18:44:41 10° 309° (NW) 18:45:10 437.445
AUBIESAT-1 31 Mar 18:45:10 18:49:29 32° 100° (E) 18:53:45 437.475
HO-68 31 Mar 18:46:20 18:50:38 18° 41° (NE) 18:55:08 435.675
PCSat 31 Mar 18:51:39 18:55:26 18° 344° (NNW) 18:59:10 145.827
MOZHAYETS 4 31 Mar 18:57:05 19:01:43 60° 288° (WNW) 19:06:17
PRISM 31 Mar 19:01:10 19:02:50 12° 86° (E) 19:04:42 437.425
M-CUBED/EXP-1 PRIME 31 Mar 19:11:33 19:16:23 58° 106° (ESE) 19:21:07 437.505
CUBESAT XI-V 31 Mar 19:14:29 19:18:12 24° 91° (E) 19:21:58 437.345
STRAND 1 31 Mar 19:24:41 19:28:01 18° 87° (E) 19:31:31 437.568
CUTE-I 31 Mar 19:25:47 19:30:58 48° 261° (W) 19:36:10 437.470
Cubesat XI-IV 31 Mar 19:26:46 19:31:56 47° 261° (W) 19:37:08 437.490
AIST 2 31 Mar 19:31:28 19:35:47 86° 48° (NE) 19:40:01 435.215
SEEDS 31 Mar 19:39:29 19:39:55 10° 53° (NE) 19:40:32 437.485
BEESAT 2 31 Mar 19:43:13 19:47:00 33° 239° (WSW) 19:50:42 435.950
BRITE-PL 31 Mar 19:44:49 19:48:09 22° 63° (ENE) 19:51:27 437.365/2234.400
GONETS M04 31 Mar 19:46:17 19:54:35 53° 90° (E) 20:03:01
SO-50 31 Mar 19:47:35 19:52:11 60° 126° (SE) 19:56:59 436.795
DOVE 4 31 Mar 19:56:28 19:58:29 14° 57° (ENE) 20:00:37 437.250
COMPASS 1 31 Mar 19:56:40 19:58:20 12° 55° (NE) 20:00:09 437.405
GOMX 1 31 Mar 20:18:04 20:21:44 28° 65° (ENE) 20:25:20 467.674
BEESAT 3 31 Mar 20:18:14 20:20:45 15° 246° (WSW) 20:23:07 437.485
AUBIESAT-1 31 Mar 20:19:47 20:24:25 45° 299° (WNW) 20:28:56 437.475
HO-68 31 Mar 20:30:05 20:37:02 57° 63° (ENE) 20:44:04 435.675
CANX-2 31 Mar 20:32:17 20:36:07 34° 67° (ENE) 20:40:02 2200.000
PRISM 31 Mar 20:34:47 20:39:01 85° 287° (WNW) 20:43:11 437.425
MOZHAYETS 4 31 Mar 20:36:32 20:38:05 11° 308° (NW) 20:39:28
PCSat 31 Mar 20:37:26 20:40:55 17° 10° (N) 20:44:27 145.827
CUTE 1.7 + AOD 2 31 Mar 20:45:38 20:49:37 41° 69° (ENE) 20:53:41 437.475
M-CUBED/EXP-1 PRIME 31 Mar 20:46:51 20:50:58 27° 305° (NW) 20:54:58 437.505
CUBEBUG 2 31 Mar 20:48:43 20:50:48 14° 57° (ENE) 20:53:02 437.445
CUBESAT XI-V 31 Mar 20:51:26 20:55:58 51° 291° (WNW) 21:00:25 437.345
CINEMA 3 31 Mar 20:52:43 20:56:00 23° 63° (ENE) 20:59:21 145.822/145.860
RS-15 31 Mar 20:52:43 21:03:40 90° 125° (SE) 21:14:58 29.354- 29.394
AAUSAT CUBESAT 2 31 Mar 21:00:16 21:04:07 36° 67° (ENE) 21:08:02 437.432
STRAND 1 31 Mar 21:02:47 21:07:56 79° 286° (WNW) 21:13:02 437.568
SEEDS 31 Mar 21:10:46 21:14:56 61° 73° (ENE) 21:19:10 437.485
AIST 2 31 Mar 21:11:12 21:13:51 16° 247° (WSW) 21:16:20 435.215
UKube-1 31 Mar 21:18:20 21:20:55 16° 57° (ENE) 21:23:37 .
DANDE 31 Mar 21:20:42 21:22:46 20° 95° (E) 21:24:48 436.750
BRITE-PL 31 Mar 21:22:02 21:26:29 53° 260° (W) 21:30:41 437.365/2234.400
SO-50 31 Mar 21:28:39 21:33:02 35° 329° (NNW) 21:37:32 436.795
COMPASS 1 31 Mar 21:29:10 21:33:22 78° 75° (ENE) 21:37:37 437.405
DX 1 31 Mar 21:31:18 21:34:32 21° 60° (ENE) 21:37:50 434.975-435.025
DOVE 4 31 Mar 21:31:29 21:35:45 88° 255° (WSW) 21:39:56 437.250
GONETS M04 31 Mar 21:43:22 21:51:41 46° 294° (WNW) 22:00:03
Oscar 11 31 Mar 21:44:54 21:49:05 52° 70° (ENE) 21:53:21 145.826/435.025
GOMX 1 31 Mar 21:55:46 21:59:50 37° 263° (W) 22:03:45 467.674
AUBIESAT-1 31 Mar 21:56:51 21:58:12 11° 318° (NW) 21:59:23 437.475
CUSAT 1 31 Mar 21:57:06 21:59:43 77° 283° (WNW) 22:02:23 437.405
DELFI C3 31 Mar 21:58:38 22:02:37 54° 71° (ENE) 22:06:40 145.870
FUNcube-1 31 Mar 22:01:03 22:04:55 40° 68° (ENE) 22:08:54 145.935
CANX-2 31 Mar 22:08:17 22:12:06 31° 266° (W) 22:15:55 2200.000
PRISM 31 Mar 22:11:47 22:13:54 13° 305° (NW) 22:15:51 437.425
UWE-3 31 Mar 22:12:09 22:16:14 62° 72° (ENE) 22:20:25 435.000/436.395/437.385
ZACube-1 31 Mar 22:14:46 22:18:50 55° 71° (ENE) 22:22:58 437.345
CUBEBUG 1 31 Mar 22:15:24 22:17:36 14° 56° (NE) 22:19:55 437.445
HO-68 31 Mar 22:18:28 22:25:06 38° 265° (W) 22:31:43 435.675
PCSat 31 Mar 22:21:04 22:25:59 33° 35° (NE) 22:30:55 145.827
VELOX 1 31 Mar 22:21:23 22:25:08 28° 63° (ENE) 22:28:56 145.980
CUTE 1.7 + AOD 2 31 Mar 22:22:10 22:25:44 25° 268° (W) 22:29:17 437.475
CUBEBUG 2 31 Mar 22:22:47 22:26:56 88° 254° (WSW) 22:31:10 437.445
AISAT 31 Mar 22:27:04 22:30:58 32° 65° (ENE) 22:34:55 437.250
CINEMA 3 31 Mar 22:29:03 22:33:02 44° 262° (W) 22:37:03 145.822/145.860
ISS 31 Mar 22:30:15 22:31:08 11° 138° (SE) 22:32:07 145.825
AAUSAT CUBESAT 2 31 Mar 22:36:12 22:39:51 28° 266° (W) 22:43:30 437.432
STRAND 1 31 Mar 22:43:16 22:46:26 16° 307° (NW) 22:49:26 437.568
HUMSAT D 31 Mar 22:44:24 22:48:26 58° 72° (ENE) 22:52:32 437.325/437.525
SEEDS 31 Mar 22:48:19 22:51:12 17° 272° (W) 22:54:01 437.485
UKube-1 31 Mar 22:52:12 22:56:33 82° 255° (WSW) 23:00:55 .
50 SAT 31 Mar 22:59:43 23:03:33 56° 72° (ENE) 23:07:28 437.505
DANDE 31 Mar 23:04:27 23:06:05 14° 295° (WNW) 23:07:38 436.750
ESTCUBE 1 31 Mar 23:05:19 23:09:31 39° 67° (ENE) 23:13:47 437.505/2401.250
DX 1 31 Mar 23:06:09 23:10:27 58° 259° (WSW) 23:14:46 434.975-435.025
RS-15 31 Mar 23:06:51 23:17:25 48° 341° (NNW) 23:28:22 29.354- 29.394
COMPASS 1 31 Mar 23:07:25 23:09:41 14° 274° (W) 23:11:48 437.405
ANTELSAT 31 Mar 23:09:39 23:12:47 18° 88° (E) 23:16:05 437.575/2403.000
SO-50 31 Mar 23:11:27 23:14:55 19° 352° (N) 23:18:24 436.795
DOVE 4 31 Mar 23:13:03 23:14:18 11° 276° (W) 23:15:19 437.250
POPSAT HIP 1 31 Mar 23:20:28 23:21:38 11° 84° (E) 23:23:01 437.405
Oscar 11 31 Mar 23:22:15 23:25:36 21° 270° (W) 23:28:54 145.826/435.025
TISAT 1 31 Mar 23:28:53 23:31:31 17° 59° (ENE) 23:34:15 437.305
NANOSAT C BR1 31 Mar 23:29:09 23:31:15 14° 86° (E) 23:33:31 145.865
YUBILEINY 31 Mar 23:35:07 23:42:11 26° 54° (NE) 23:49:25 435.215
DELFI C3 31 Mar 23:35:14 23:38:09 18° 271° (W) 23:41:00 145.870
POLYITAN 1 31 Mar 23:35:30 23:38:07 16° 88° (E) 23:40:53 437.675
FUNcube-1 31 Mar 23:37:59 23:41:28 25° 268° (W) 23:44:55 145.935
GONETS M04 31 Mar 23:47:08 23:51:35 14° 323° (NW) 23:55:42
SPROUT 31 Mar 23:48:11 23:51:47 27° 64° (ENE) 23:55:26 437.525
CUBEBUG 1 31 Mar 23:48:56 23:53:21 84° 74° (ENE) 23:57:46 437.445
UWE-3 31 Mar 23:50:34 23:53:17 16° 272° (W) 23:55:55 435.000/436.395/437.385
ZACube-1 31 Mar 23:52:37 23:55:37 18° 271° (W) 23:58:32 437.345
VELOX 1 31 Mar 23:57:21 00:01:35 42° 262° (W) 00:05:49 145.980
CUBEBUG 2 01 Apr 00:03:13 00:04:27 11° 276° (W) 00:05:29 437.445
AISAT 01 Apr 00:03:25 00:07:33 36° 263° (W) 00:11:39 437.250
ISS 01 Apr 00:03:49 00:06:56 42° 155° (SSE) 00:10:02 145.825
PCSat 01 Apr 00:04:25 00:09:50 67° 237° (WSW) 00:15:12 145.827
UNISAT 6 01 Apr 00:04:45 00:09:15 54° 100° (E) 00:13:50 437.425
QB50P1 01 Apr 00:10:16 00:14:06 33° 96° (E) 00:17:58 145.935-145.965
DUCHIFAT 1 01 Apr 00:10:31 00:14:19 32° 95° (E) 00:18:08 145.980
TIGRISAT 01 Apr 00:13:40 00:18:13 64° 102° (ESE) 00:22:51 435.000
HUMSAT D 01 Apr 00:21:48 00:24:38 17° 271° (W) 00:27:23 437.325/437.525
QB50P2 01 Apr 00:25:56 00:30:04 47° 99° (E) 00:34:11 145.880/145.840
UKube-1 01 Apr 00:32:06 00:33:30 11° 276° (W) 00:34:41 .
50 SAT 01 Apr 00:36:16 00:38:53 17° 271° (W) 00:41:24 437.505
BUGSAT 1 01 Apr 00:38:35 00:42:28 44° 99° (E) 00:46:21 437.445
ESTCUBE 1 01 Apr 00:42:26 00:46:30 31° 266° (W) 00:50:32 437.505/2401.250
ITUPSAT 1 01 Apr 00:44:36 00:48:02 20° 58° (ENE) 00:51:35 437.325
ANTELSAT 01 Apr 00:45:30 00:50:04 67° 288° (WNW) 00:54:41 437.575/2403.000
SO-50 01 Apr 00:53:17 00:57:04 22° 16° (NNE) 01:00:54 436.795
POPSAT HIP 1 01 Apr 00:54:02 00:58:17 86° 104° (ESE) 01:02:32 437.405
TISAT 1 01 Apr 01:02:39 01:06:52 73° 257° (WSW) 01:11:06 437.305
NANOSAT C BR1 01 Apr 01:03:29 01:07:43 78° 286° (WNW) 01:11:57 145.865
POLYITAN 1 01 Apr 01:10:19 01:14:33 66° 288° (WNW) 01:18:46 437.675
RS-15 01 Apr 01:22:07 01:32:43 45° 14° (NNE) 01:43:48 29.354- 29.394
SPROUT 01 Apr 01:23:41 01:27:45 40° 263° (W) 01:31:49 437.525
CUBEBUG 1 01 Apr 01:28:06 01:30:24 14° 274° (W) 01:32:31 437.445
SWISSCUBE 01 Apr 01:29:43 01:34:18 47° 67° (ENE) 01:38:56 437.505
YUBILEINY 01 Apr 01:31:37 01:40:32 87° 78° (ENE) 01:49:21 435.215
BEESAT 01 Apr 01:32:11 01:36:45 46° 67° (ENE) 01:41:22 436.000
ISS 01 Apr 01:39:57 01:43:12 90° 250° (WSW) 01:46:28 145.825
UNISAT 6 01 Apr 01:42:06 01:45:47 24° 298° (WNW) 01:49:27 437.425
QB50P1 01 Apr 01:46:12 01:49:59 32° 295° (WNW) 01:53:44 145.935-145.965
DUCHIFAT 1 01 Apr 01:46:22 01:50:10 32° 294° (WNW) 01:53:55 145.980
PCSat 01 Apr 01:49:59 01:52:22 13° 256° (WSW) 01:54:29 145.827
TIGRISAT 01 Apr 01:51:10 01:54:37 21° 300° (WNW) 01:58:02 435.000
QB50P2 01 Apr 02:02:19 02:05:45 24° 298° (WNW) 02:09:08 145.880/145.840
Oscar 19 01 Apr 02:03:00 02:06:47 21° 89° (E) 02:10:41 437.125/150
BUGSAT 1 01 Apr 02:14:32 02:17:46 23° 297° (WNW) 02:20:56 437.445
ITUPSAT 1 01 Apr 02:20:39 02:25:29 74° 257° (WSW) 02:30:20 437.325
ANTELSAT 01 Apr 02:24:11 02:26:08 12° 306° (NW) 02:27:55 437.575/2403.000
POPSAT HIP 1 01 Apr 02:31:13 02:33:38 15° 303° (WNW) 02:35:57 437.405
KKS-1 01 Apr 02:31:46 02:35:48 36° 66° (ENE) 02:39:53 437.445
SO-50 01 Apr 02:33:48 02:38:40 52° 39° (NE) 02:43:31 436.795
NANOSAT C BR1 01 Apr 02:41:05 02:42:56 12° 305° (NW) 02:44:39 145.865
Gurwin Techsat 1B 01 Apr 02:42:00 02:44:30 14° 83° (E) 02:47:14 435.225
POLYITAN 1 01 Apr 02:48:30 02:49:45 11° 306° (NW) 02:50:48 437.675
STARS 01 Apr 02:56:52 03:00:58 40° 67° (ENE) 03:05:06 437.465
SWISSCUBE 01 Apr 03:08:15 03:12:23 28° 267° (W) 03:16:30 437.505
BEESAT 01 Apr 03:10:39 03:14:49 28° 267° (W) 03:18:57 436.000
ITAMSAT 1 01 Apr 03:14:30 03:18:56 28° 93° (E) 03:23:25 435.822/435.867
ISS 01 Apr 03:16:21 03:19:36 69° 195° (SSW) 03:22:49 145.825
YUBILEINY 01 Apr 03:29:28 03:36:24 26° 282° (WNW) 03:43:02 435.215
RS-15 01 Apr 03:35:33 03:46:58 79° 44° (NE) 03:58:54 29.354- 29.394
AIST 1 01 Apr 03:35:59 03:38:11 14° 83° (E) 03:40:34
AO-7 01 Apr 03:38:31 03:40:12 11° 76° (ENE) 03:42:33 29.400- 29.500
Oscar 19 01 Apr 03:41:32 03:46:42 70° 289° (WNW) 03:51:52 437.125/150
JAS-2 01 Apr 03:46:22 03:49:05 12° 73° (ENE) 03:52:12 435.910
GONETS M04 01 Apr 03:54:20 03:56:47 11° 32° (NNE) 03:59:38
O/OREOS (USA 219) 01 Apr 03:59:34 04:03:18 25° 105° (ESE) 04:07:07 437.305
ITUPSAT 1 01 Apr 04:02:42 04:04:22 11° 277° (W) 04:05:45 437.325
AUBIESAT-1 01 Apr 04:05:27 04:08:13 17° 48° (NE) 04:11:11 437.475
KKS-1 01 Apr 04:08:30 04:12:30 32° 265° (W) 04:16:29 437.445
SO-50 01 Apr 04:14:36 04:19:08 36° 239° (WSW) 04:23:36 436.795
Gurwin Techsat 1B 01 Apr 04:20:07 04:25:29 78° 104° (ESE) 04:30:49 435.225
MOZHAYETS 4 01 Apr 04:27:34 04:31:45 35° 66° (ENE) 04:36:01
HORYU 2 01 Apr 04:31:13 04:35:04 28° 94° (E) 04:38:59 437.375
M-CUBED/EXP-1 PRIME 01 Apr 04:31:21 04:34:58 27° 55° (NE) 04:38:53 437.505
STARS 01 Apr 04:33:48 04:37:35 27° 266° (W) 04:41:20 437.465
ISS 01 Apr 04:53:04 04:55:38 22° 214° (SW) 04:58:10 145.825
ITAMSAT 1 01 Apr 04:53:42 04:58:44 51° 293° (WNW) 05:03:44 435.822/435.867
AIST 1 01 Apr 05:10:54 05:15:19 77° 282° (WNW) 05:19:44
Oscar 19 01 Apr 05:22:23 05:25:16 15° 308° (NW) 05:28:00 437.125/150
AO-7 01 Apr 05:27:27 05:35:28 51° 100° (E) 05:43:31 29.400- 29.500
JAS-2 01 Apr 05:28:37 05:36:15 54° 97° (E) 05:43:19 435.910
O/OREOS (USA 219) 01 Apr 05:38:00 05:42:30 51° 305° (NW) 05:47:01 437.305
AUBIESAT-1 01 Apr 05:38:06 05:42:22 86° 68° (ENE) 05:47:00 437.475
RS-15 01 Apr 05:48:20 05:58:45 41° 248° (WSW) 06:09:21 29.354- 29.394
GONETS M04 01 Apr 05:49:15 05:57:14 37° 61° (ENE) 06:05:19
PRISM 01 Apr 05:56:03 05:59:11 21° 61° (ENE) 06:02:24 437.425
Gurwin Techsat 1B 01 Apr 06:00:57 06:04:58 22° 304° (WNW) 06:08:52 435.225
MOZHAYETS 4 01 Apr 06:04:44 06:09:00 35° 265° (W) 06:13:17
M-CUBED/EXP-1 PRIME 01 Apr 06:05:30 06:09:37 49° 255° (WSW) 06:14:05 437.505
HORYU 2 01 Apr 06:07:37 06:11:54 42° 293° (WNW) 06:16:09 437.375
CUBESAT XI-V 01 Apr 06:22:52 06:27:18 42° 67° (ENE) 06:31:45 437.345
ITAMSAT 1 01 Apr 06:35:32 06:37:13 11° 313° (NW) 06:38:41 435.822/435.867
CUSAT 1 01 Apr 06:44:04 06:46:42 16° 64° (ENE) 06:49:56 437.405
STRAND 1 01 Apr 06:45:22 06:50:13 44° 66° (ENE) 06:55:07 437.568
AIST 1 01 Apr 06:52:09 06:53:52 12° 303° (WNW) 06:55:24
PHONESAT 2.4 01 Apr 07:12:19 07:13:37 12° 168° (SSE) 07:14:57 2401.200-2431.200
JAS-2 01 Apr 07:13:50 07:21:11 45° 299° (WNW) 07:28:00 435.910
AUBIESAT-1 01 Apr 07:15:35 07:17:58 14° 270° (W) 07:20:16 437.475
AO-7 01 Apr 07:20:28 07:28:23 51° 302° (WNW) 07:36:15 29.400- 29.500
O/OREOS (USA 219) 01 Apr 07:20:52 07:23:05 13° 328° (NNW) 07:25:12 437.305
PRISM 01 Apr 07:30:12 07:34:21 55° 259° (W) 07:38:32 437.425
CUTE-I 01 Apr 07:37:06 07:42:13 45° 98° (E) 07:47:20 437.470
Cubesat XI-IV 01 Apr 07:38:14 07:43:22 47° 98° (E) 07:48:30 437.490
VERMONT LUNAR 01 Apr 07:42:48 07:44:19 13° 183° (S) 07:45:51 437.305
GONETS M04 01 Apr 07:46:04 07:54:50 68° 266° (W) 08:03:33
DANDE 01 Apr 07:51:43 07:55:26 42° 74° (ENE) 08:00:21 436.750
CUBESAT XI-V 01 Apr 08:00:46 08:04:54 29° 267° (W) 08:08:59 437.345
STRAND 1 01 Apr 08:24:57 08:29:35 33° 266° (W) 08:34:12 437.568
CUSAT 1 01 Apr 08:25:33 08:29:44 75° 259° (WSW) 08:35:21 437.405
PHONESAT 2.4 01 Apr 08:49:18 08:51:04 13° 185° (S) 08:52:51 2401.200-2431.200
